Location: Madrid
(40.4000°N, 3.6830°W)
Time: 23:00:02
(UTC+02:00)

ISS - Pass Details

Date: 25 May 2019
Orbit: 408 x 418 km, 51.6° (Epoch: 26 May)

Event Time Altitude Azimuth Distance (km) Brightness Sun altitude
Rises 01:49:37 0° 312° (NW) 2,358 0.7 -28.5°
Reaches altitude 10° 01:51:56 10° 325° (NW) 1,495 -0.2 -28.6°
Enters shadow 01:53:08 18° 340° (NNW) 1,117 -0.9 -28.6°
